Regional Weather Roundup
Issued by NWS

Home | Current Version | Previous Version | Text Only | Print | Product List | Glossary Off
Versions: 1 2 3 4 5 6 7 8 9 10 11 12 13 14 15 16 17 18 19 20 21 22 23 24 25 26 27 28 29 30 31 32 33 34 35 36 37 38 39 40 41 42 43 44 45 46 47 48 49 50

125
ASUS45 KBOI 230610
RWRID

IDAHO REGIONAL WEATHER ROUNDUP
NATIONAL WEATHER SERVICE BOISE ID
1100 PM MST SUN JAN 22 2017

NOTE: "FAIR" INDICATES FEW OR NO CLOUDS BELOW 12000 FEET
WITH NO SIGNIFICANT WEATHER AND/OR OBSTRUCTIONS TO VISIBILITY

IDZ012-014-230700-
SOUTHWEST IDAHO


CITY           SKY/WX    TMP DP  RH WIND       PRES   REMARKS
BOISE          PTCLDY    32  28  85 S9        29.64R WCI  24
CALDWELL       PTCLDY    26  25  96 VRB3      29.67R
MOUNTAIN HOME  DRIZZLE   31  31 100 CALM      29.63F
$$

IDZ016-017-230700-
SOUTHCENTRAL IDAHO


CITY           SKY/WX    TMP DP  RH WIND       PRES   REMARKS
BURLEY         LGT SNOW  34  31  88 SE6       29.63F FOG     WCI  29
JEROME         CLOUDY    33  31  92 E8        29.63S WCI  26
TWIN FALLS     CLOUDY    34  29  82 S10       29.63R WCI  26
$$

IDZ019>023-230700-
SOUTHEAST IDAHO


CITY           SKY/WX    TMP DP  RH WIND       PRES   REMARKS
IDAHO FALLS    LGT SNOW  29  29 100 N5        29.69S FOG     WCI  24
POCATELLO      FLURRIES  34  30  85 S8        29.67S WCI  27
REXBURG        LGT SNOW  29  28  96 CALM      29.69F FOG
$$

IDZ006-010-011-018-031-032-230700-
CENTRAL IDAHO MOUNTAINS


CITY           SKY/WX    TMP DP  RH WIND       PRES   REMARKS
MCCALL         CLEAR     17  14  88 N3        29.56F
HAILEY         CLOUDY    27  23  86 W3        29.64S
STANLEY          N/A     11   9  92 S3        29.60F
SALMON         CLOUDY    14  10  85 SE3       29.67S
CHALLIS        PTCLDY    10   9  95 NW3       29.63F FOG
$$

IDZ002-004-006-007-026-230700-
NORTHERN IDAHO


CITY           SKY/WX    TMP DP  RH WIND       PRES   REMARKS
LEWISTON       PTCLDY    36  31  82 SE3       29.65S
LOWELL           N/A     32  31  96 CALM      29.72R
COEUR D`ALENE  LGT SNOW  33  32  96 CALM      29.62R FOG
MULLAN PASS    LGT SNOW  24  21  88 S5        29.50R VSB 1   WCI  18
$$




USA.gov is the U.S. government's official web portal to all federal, state and local government web resources and services.